Tracking 33068 objects as of 24-Jan-2026
HD Live streaming from Space Station
objects crossing your sky now

HJS-6D

Track HJS-6D now!
10-day predictions


NORAD ID: 63431
Int'l Code: 2025-067D
Perigee: 456.5 km
Apogee: 462.6 km
Inclination: 55.0 °
Period: 93.6 minutes
Semi major axis: 6830 km
RCS: Unknown
Launch date: April 1, 2025
Source: People's Republic of China (PRC)
Launch site: Jiuquan Satellite Launch Center, China (JSC)
Your satellite tracking list
Your tracking list is empty




NASA's NSSDC Master Catalog

Two Line Element Set (TLE):
1 63431U 25067D   26024.48981042  .00020355  00000-0  54812-3 0  9995
2 63431  54.9928 308.2710 0004506 352.6612   7.4348 15.37873989 45901
Source of the keplerian elements: AFSPC